Time,TemperatureF,DewpointF,PressureIn,WindDirection,WindDirectionDegrees,WindSpeedMPH,WindSpeedGustMPH,Humidity,HourlyPrecipIn,Conditions,Clouds,dailyrainin,SoftwareType,DateUTC
2013-06-23 00:03:00,80.6,66.9,29.48,North,0,0.0,0.0,63,0.00,,,0.00,WUHU216HW,2013-06-23 05:03:00,
2013-06-23 00:08:00,80.6,66.9,29.47,North,0,0.0,0.0,63,0.00,,,0.00,WUHU216HW,2013-06-23 05:08:00,
2013-06-23 00:13:00,80.6,66.9,29.47,North,0,0.0,0.0,63,0.00,,,0.00,WUHU216HW,2013-06-23 05:13:00,
2013-06-23 00:18:00,80.6,66.9,29.47,North,0,0.0,0.0,63,0.00,,,0.00,WUHU216HW,2013-06-23 05:18:00,
2013-06-23 00:23:00,80.5,66.7,29.47,North,0,0.0,0.0,63,0.00,,,0.00,WUHU216HW,2013-06-23 05:23:00,
2013-06-23 00:28:00,80.3,66.5,29.46,North,0,0.0,0.0,63,0.00,,,0.00,WUHU216HW,2013-06-23 05:28:00,
2013-06-23 00:33:00,80.3,66.5,29.46,North,0,0.0,0.0,63,0.00,,,0.00,WUHU216HW,2013-06-23 05:33:00,
2013-06-23 00:38:00,80.3,66.5,29.45,North,0,0.0,0.0,63,0.00,,,0.00,WUHU216HW,2013-06-23 05:38:00,
2013-06-23 00:43:00,80.3,66.5,29.45,North,0,0.0,0.0,63,0.00,,,0.00,WUHU216HW,2013-06-23 05:43:00,
2013-06-23 00:48:00,80.3,67.0,29.44,North,0,0.0,0.0,64,0.00,,,0.00,WUHU216HW,2013-06-23 05:48:00,
2013-06-23 00:53:00,80.1,66.8,29.45,North,0,0.0,0.0,64,0.00,,,0.00,WUHU216HW,2013-06-23 05:53:00,
2013-06-23 00:58:00,79.9,67.1,29.45,North,0,0.0,0.0,65,0.00,,,0.00,WUHU216HW,2013-06-23 05:58:00,
2013-06-23 01:03:00,79.7,66.9,29.45,North,0,0.0,0.0,65,0.00,,,0.00,WUHU216HW,2013-06-23 06:03:00,
2013-06-23 01:08:00,79.7,67.3,29.45,North,0,0.0,0.0,66,0.00,,,0.00,WUHU216HW,2013-06-23 06:08:00,
2013-06-23 01:13:00,79.6,67.1,29.45,North,0,0.0,0.0,66,0.00,,,0.00,WUHU216HW,2013-06-23 06:13:00,
2013-06-23 01:18:00,79.6,67.1,29.45,North,0,0.0,0.0,66,0.00,,,0.00,WUHU216HW,2013-06-23 06:18:00,
2013-06-23 01:23:00,79.6,67.6,29.45,North,0,0.0,0.0,67,0.00,,,0.00,WUHU216HW,2013-06-23 06:23:00,
2013-06-23 01:28:00,79.4,67.9,29.45,North,0,0.0,0.0,68,0.00,,,0.00,WUHU216HW,2013-06-23 06:28:00,
2013-06-23 01:33:00,79.4,67.9,29.45,North,0,0.0,0.0,68,0.00,,,0.00,WUHU216HW,2013-06-23 06:33:00,
2013-06-23 01:38:00,79.2,67.7,29.45,North,0,0.0,0.0,68,0.00,,,0.00,WUHU216HW,2013-06-23 06:38:00,
2013-06-23 01:43:00,79.2,68.1,29.45,North,0,0.0,0.0,69,0.00,,,0.00,WUHU216HW,2013-06-23 06:43:00,
2013-06-23 01:48:00,79.2,68.1,29.45,North,0,0.0,0.0,69,0.00,,,0.00,WUHU216HW,2013-06-23 06:48:00,
2013-06-23 01:53:00,79.2,68.1,29.45,North,0,0.0,0.0,69,0.00,,,0.00,WUHU216HW,2013-06-23 06:53:00,
2013-06-23 01:58:00,79.0,68.0,29.45,North,0,0.0,0.0,69,0.00,,,0.00,WUHU216HW,2013-06-23 06:58:00,
2013-06-23 02:03:00,78.8,67.8,29.45,North,0,0.0,0.0,69,0.00,,,0.00,WUHU216HW,2013-06-23 07:03:00,
2013-06-23 02:08:00,79.0,68.0,29.45,North,0,0.0,0.0,69,0.00,,,0.00,WUHU216HW,2013-06-23 07:08:00,
2013-06-23 02:13:00,78.8,67.8,29.45,North,0,0.0,0.0,69,0.00,,,0.00,WUHU216HW,2013-06-23 07:13:00,
2013-06-23 02:18:00,78.8,67.8,29.45,North,0,0.0,0.0,69,0.00,,,0.00,WUHU216HW,2013-06-23 07:18:00,
2013-06-23 02:23:00,78.7,68.0,29.45,North,0,0.0,0.0,70,0.00,,,0.00,WUHU216HW,2013-06-23 07:23:00,
2013-06-23 02:28:00,78.5,67.9,29.45,North,0,0.0,0.0,70,0.00,,,0.00,WUHU216HW,2013-06-23 07:28:00,
2013-06-23 02:33:00,78.5,67.9,29.45,North,0,0.0,0.0,70,0.00,,,0.00,WUHU216HW,2013-06-23 07:33:00,
2013-06-23 02:38:00,78.5,67.9,29.45,North,0,0.0,0.0,70,0.00,,,0.00,WUHU216HW,2013-06-23 07:38:00,
2013-06-23 02:43:00,78.3,67.8,29.45,North,0,0.0,0.0,70,0.00,,,0.00,WUHU216HW,2013-06-23 07:43:00,
2013-06-23 02:48:00,78.3,67.8,29.45,North,0,0.0,0.0,70,0.00,,,0.00,WUHU216HW,2013-06-23 07:48:00,
2013-06-23 02:53:00,78.3,67.8,29.45,North,0,0.0,0.0,70,0.00,,,0.00,WUHU216HW,2013-06-23 07:53:00,
2013-06-23 02:58:00,78.1,67.6,29.45,North,0,0.0,0.0,70,0.00,,,0.00,WUHU216HW,2013-06-23 07:58:00,
2013-06-23 03:03:00,78.1,67.6,29.45,North,0,0.0,0.0,70,0.00,,,0.00,WUHU216HW,2013-06-23 08:03:00,
2013-06-23 03:08:00,78.1,67.6,29.44,North,0,0.0,0.0,70,0.00,,,0.00,WUHU216HW,2013-06-23 08:08:00,
2013-06-23 03:13:00,78.1,67.6,29.44,North,0,0.0,0.0,70,0.00,,,0.00,WUHU216HW,2013-06-23 08:13:00,
2013-06-23 03:18:00,78.1,67.6,29.45,North,0,0.0,0.0,70,0.00,,,0.00,WUHU216HW,2013-06-23 08:18:00,
2013-06-23 03:23:00,78.1,67.6,29.45,North,0,0.0,0.0,70,0.00,,,0.00,WUHU216HW,2013-06-23 08:23:00,
2013-06-23 03:28:00,77.9,67.4,29.45,North,0,0.0,0.0,70,0.00,,,0.00,WUHU216HW,2013-06-23 08:28:00,
2013-06-23 03:33:00,77.9,67.4,29.45,North,0,0.0,0.0,70,0.00,,,0.00,WUHU216HW,2013-06-23 08:33:00,
2013-06-23 03:38:00,77.9,67.4,29.45,North,0,0.0,0.0,70,0.00,,,0.00,WUHU216HW,2013-06-23 08:38:00,
2013-06-23 03:43:00,77.9,67.4,29.45,North,0,0.0,0.0,70,0.00,,,0.00,WUHU216HW,2013-06-23 08:43:00,
2013-06-23 03:48:00,77.8,67.2,29.45,North,0,0.0,0.0,70,0.00,,,0.00,WUHU216HW,2013-06-23 08:48:00,
2013-06-23 03:53:00,77.8,67.2,29.47,North,0,0.0,0.0,70,0.00,,,0.00,WUHU216HW,2013-06-23 08:53:00,
2013-06-23 03:58:00,77.8,67.6,29.48,North,0,0.0,0.0,71,0.00,,,0.00,WUHU216HW,2013-06-23 08:58:00,
2013-06-23 04:03:00,77.6,67.5,29.48,North,0,0.0,0.0,71,0.00,,,0.00,WUHU216HW,2013-06-23 09:03:00,
2013-06-23 04:08:00,77.6,67.5,29.50,North,0,0.0,0.0,71,0.00,,,0.00,WUHU216HW,2013-06-23 09:08:00,
2013-06-23 04:13:00,77.6,67.5,29.50,North,0,0.0,0.0,71,0.00,,,0.00,WUHU216HW,2013-06-23 09:13:00,
2013-06-23 04:18:00,77.4,67.3,29.50,North,0,0.0,0.0,71,0.00,,,0.00,WUHU216HW,2013-06-23 09:18:00,
2013-06-23 04:23:00,77.4,67.3,29.50,North,0,0.0,0.0,71,0.00,,,0.00,WUHU216HW,2013-06-23 09:23:00,
2013-06-23 04:28:00,77.6,67.5,29.49,North,0,0.0,0.0,71,0.00,,,0.00,WUHU216HW,2013-06-23 09:28:00,
2013-06-23 04:33:00,77.6,67.5,29.49,North,0,0.0,0.0,71,0.00,,,0.00,WUHU216HW,2013-06-23 09:33:00,
2013-06-23 04:38:00,77.8,67.6,29.49,North,0,0.0,0.0,71,0.00,,,0.00,WUHU216HW,2013-06-23 09:38:00,
2013-06-23 04:43:00,77.6,67.5,29.50,North,0,0.0,0.0,71,0.00,,,0.00,WUHU216HW,2013-06-23 09:43:00,
2013-06-23 04:48:00,75.8,65.7,29.52,North,0,0.0,0.0,71,0.00,,,0.00,WUHU216HW,2013-06-23 09:48:00,
2013-06-23 04:53:00,74.2,65.0,29.52,North,0,0.0,0.0,73,0.00,,,0.00,WUHU216HW,2013-06-23 09:53:00,
2013-06-23 04:58:00,73.1,64.7,29.53,North,0,0.0,0.0,75,0.00,,,0.00,WUHU216HW,2013-06-23 09:58:00,
2013-06-23 05:03:00,72.2,63.8,29.54,North,0,0.0,0.0,75,0.00,,,0.00,WUHU216HW,2013-06-23 10:03:00,
2013-06-23 05:08:00,71.6,63.6,29.55,North,0,0.0,0.0,76,0.00,,,0.00,WUHU216HW,2013-06-23 10:08:00,
2013-06-23 05:13:00,70.7,63.6,29.56,North,0,0.0,0.0,78,0.00,,,0.00,WUHU216HW,2013-06-23 10:13:00,
2013-06-23 05:18:00,70.4,63.9,29.55,North,0,0.0,0.0,80,0.00,,,0.00,WUHU216HW,2013-06-23 10:18:00,
2013-06-23 05:23:00,69.7,64.3,29.54,North,0,0.0,0.0,83,0.00,,,0.00,WUHU216HW,2013-06-23 10:23:00,
2013-06-23 05:28:00,68.9,63.9,29.54,North,0,0.0,0.0,84,0.00,,,0.00,WUHU216HW,2013-06-23 10:28:00,
2013-06-23 05:33:00,68.0,63.4,29.52,North,0,0.0,0.0,85,0.00,,,0.00,WUHU216HW,2013-06-23 10:33:00,
2013-06-23 05:38:00,67.9,63.2,29.51,North,0,0.0,0.0,85,0.16,,,0.16,WUHU216HW,2013-06-23 10:38:00,
2013-06-23 05:43:00,67.7,63.0,29.52,North,0,0.0,0.0,85,0.16,,,0.16,WUHU216HW,2013-06-23 10:43:00,
2013-06-23 05:48:00,67.5,62.8,29.53,North,0,0.0,0.0,85,0.16,,,0.16,WUHU216HW,2013-06-23 10:48:00,
2013-06-23 05:53:00,67.5,62.5,29.54,North,0,0.0,0.0,84,0.16,,,0.16,WUHU216HW,2013-06-23 10:53:00,
2013-06-23 05:58:00,67.5,62.5,29.56,North,0,0.0,0.0,84,0.16,,,0.16,WUHU216HW,2013-06-23 10:58:00,
2013-06-23 06:03:00,67.5,62.5,29.56,North,0,0.0,0.0,84,0.16,,,0.16,WUHU216HW,2013-06-23 11:03:00,
2013-06-23 06:08:00,67.5,62.5,29.56,North,0,0.0,0.0,84,0.16,,,0.16,WUHU216HW,2013-06-23 11:08:00,
2013-06-23 06:13:00,67.5,62.5,29.59,North,0,0.0,0.0,84,0.17,,,0.17,WUHU216HW,2013-06-23 11:13:00,
2013-06-23 06:18:00,67.5,62.5,29.61,North,0,0.0,0.0,84,0.17,,,0.17,WUHU216HW,2013-06-23 11:18:00,
2013-06-23 06:23:00,67.7,62.6,29.61,North,0,0.0,0.0,84,0.17,,,0.17,WUHU216HW,2013-06-23 11:23:00,
2013-06-23 06:28:00,67.7,62.6,29.60,North,0,0.0,0.0,84,0.17,,,0.17,WUHU216HW,2013-06-23 11:28:00,
2013-06-23 06:33:00,67.7,62.6,29.59,North,0,0.0,0.0,84,0.17,,,0.17,WUHU216HW,2013-06-23 11:33:00,
2013-06-23 06:38:00,67.7,63.0,29.58,North,0,0.0,0.0,85,0.01,,,0.17,WUHU216HW,2013-06-23 11:38:00,
2013-06-23 06:43:00,67.3,62.6,29.59,North,0,0.0,0.0,85,0.01,,,0.17,WUHU216HW,2013-06-23 11:43:00,
2013-06-23 06:48:00,67.1,62.8,29.59,North,0,0.0,0.0,86,0.01,,,0.17,WUHU216HW,2013-06-23 11:48:00,
2013-06-23 06:53:00,67.0,62.9,29.58,North,0,0.0,0.0,87,0.01,,,0.17,WUHU216HW,2013-06-23 11:53:00,
2013-06-23 06:58:00,66.8,62.5,29.57,North,0,0.0,0.0,86,0.01,,,0.17,WUHU216HW,2013-06-23 11:58:00,
2013-06-23 07:03:00,66.8,62.5,29.55,North,0,0.0,0.0,86,0.01,,,0.17,WUHU216HW,2013-06-23 12:03:00,
2013-06-23 07:08:00,66.6,62.3,29.54,North,0,0.0,0.0,86,0.00,,,0.17,WUHU216HW,2013-06-23 12:08:00,
2013-06-23 07:13:00,66.6,62.3,29.53,North,0,0.0,0.0,86,0.00,,,0.17,WUHU216HW,2013-06-23 12:13:00,
2013-06-23 07:18:00,66.4,62.1,29.52,North,0,0.0,0.0,86,0.00,,,0.17,WUHU216HW,2013-06-23 12:18:00,
2013-06-23 07:23:00,66.4,62.1,29.52,North,0,0.0,0.0,86,0.00,,,0.17,WUHU216HW,2013-06-23 12:23:00,
2013-06-23 07:28:00,66.4,62.1,29.51,North,0,0.0,0.0,86,0.00,,,0.17,WUHU216HW,2013-06-23 12:28:00,
2013-06-23 07:33:00,66.4,62.1,29.50,North,0,0.0,0.0,86,0.00,,,0.17,WUHU216HW,2013-06-23 12:33:00,
2013-06-23 07:38:00,66.2,62.2,29.47,North,0,0.0,0.0,87,0.00,,,0.17,WUHU216HW,2013-06-23 12:38:00,
2013-06-23 07:43:00,66.1,62.4,29.45,North,0,0.0,0.0,88,0.00,,,0.17,WUHU216HW,2013-06-23 12:43:00,
2013-06-23 07:49:00,65.7,62.0,29.43,North,0,0.0,0.0,88,0.08,,,0.25,WUHU216HW,2013-06-23 12:49:00,
2013-06-23 07:54:00,65.7,62.0,29.42,North,0,0.0,0.0,88,0.08,,,0.25,WUHU216HW,2013-06-23 12:54:00,
2013-06-23 07:59:00,65.7,62.0,29.45,North,0,0.0,0.0,88,0.08,,,0.25,WUHU216HW,2013-06-23 12:59:00,
2013-06-23 08:04:00,65.7,62.0,29.43,North,0,0.0,0.0,88,0.08,,,0.25,WUHU216HW,2013-06-23 13:04:00,
2013-06-23 08:09:00,65.7,62.0,29.46,North,0,0.0,0.0,88,0.08,,,0.25,WUHU216HW,2013-06-23 13:09:00,
2013-06-23 08:14:00,65.9,61.6,29.47,North,0,0.0,0.0,86,0.08,,,0.25,WUHU216HW,2013-06-23 13:14:00,
2013-06-23 08:19:00,65.9,61.6,29.48,North,0,0.0,0.0,86,0.08,,,0.25,WUHU216HW,2013-06-23 13:19:00,
2013-06-23 08:24:00,66.1,61.8,29.49,North,0,0.0,0.0,86,0.08,,,0.25,WUHU216HW,2013-06-23 13:24:00,
2013-06-23 08:29:00,65.9,61.6,29.48,North,0,0.0,0.0,86,0.08,,,0.25,WUHU216HW,2013-06-23 13:29:00,
2013-06-23 08:34:00,65.9,61.6,29.49,North,0,0.0,0.0,86,0.08,,,0.25,WUHU216HW,2013-06-23 13:34:00,
2013-06-23 08:39:00,65.9,61.8,29.46,North,0,0.0,0.0,87,0.08,,,0.25,WUHU216HW,2013-06-23 13:39:00,
2013-06-23 08:44:00,65.9,61.8,29.47,North,0,0.0,0.0,87,0.00,,,0.25,WUHU216HW,2013-06-23 13:44:00,
2013-06-23 08:49:00,65.9,61.8,29.50,North,0,0.0,0.0,87,0.00,,,0.25,WUHU216HW,2013-06-23 13:49:00,
2013-06-23 08:54:00,66.1,62.0,29.50,North,0,0.0,0.0,87,0.00,,,0.25,WUHU216HW,2013-06-23 13:54:00,
2013-06-23 08:59:00,66.2,61.9,29.50,North,0,0.0,0.0,86,0.00,,,0.25,WUHU216HW,2013-06-23 13:59:00,
2013-06-23 09:04:00,66.2,61.9,29.50,North,0,0.0,0.0,86,0.00,,,0.25,WUHU216HW,2013-06-23 14:04:00,
2013-06-23 09:09:00,66.2,61.9,29.49,North,0,0.0,0.0,86,0.00,,,0.25,WUHU216HW,2013-06-23 14:09:00,
2013-06-23 09:14:00,66.2,61.9,29.49,North,0,0.0,0.0,86,0.00,,,0.25,WUHU216HW,2013-06-23 14:14:00,
2013-06-23 09:19:00,66.2,61.9,29.50,North,0,0.0,0.0,86,0.00,,,0.25,WUHU216HW,2013-06-23 14:19:00,
2013-06-23 09:24:00,66.2,61.9,29.51,North,0,0.0,0.0,86,0.00,,,0.25,WUHU216HW,2013-06-23 14:24:00,
2013-06-23 09:29:00,66.2,61.9,29.51,North,0,0.0,0.0,86,0.00,,,0.25,WUHU216HW,2013-06-23 14:29:00,
2013-06-23 09:34:00,66.4,62.1,29.52,North,0,0.0,0.0,86,0.00,,,0.25,WUHU216HW,2013-06-23 14:34:00,
2013-06-23 09:39:00,66.4,62.1,29.52,North,0,0.0,0.0,86,0.00,,,0.25,WUHU216HW,2013-06-23 14:39:00,
2013-06-23 09:44:00,66.6,62.3,29.53,North,0,0.0,0.0,86,0.00,,,0.25,WUHU216HW,2013-06-23 14:44:00,
2013-06-23 09:49:00,66.6,62.3,29.53,North,0,0.0,0.0,86,0.00,,,0.25,WUHU216HW,2013-06-23 14:49:00,
2013-06-23 09:54:00,66.8,62.5,29.53,North,0,0.0,0.0,86,0.00,,,0.25,WUHU216HW,2013-06-23 14:54:00,
2013-06-23 09:59:00,66.8,62.5,29.54,North,0,0.0,0.0,86,0.00,,,0.25,WUHU216HW,2013-06-23 14:59:00,
2013-06-23 10:04:00,66.8,62.1,29.54,North,0,0.0,0.0,85,0.00,,,0.25,WUHU216HW,2013-06-23 15:04:00,
2013-06-23 10:09:00,66.8,62.1,29.54,North,0,0.0,0.0,85,0.00,,,0.25,WUHU216HW,2013-06-23 15:09:00,
2013-06-23 10:14:00,66.8,62.1,29.54,North,0,0.0,0.0,85,0.00,,,0.25,WUHU216HW,2013-06-23 15:14:00,
2013-06-23 10:19:00,66.8,62.1,29.54,North,0,0.0,0.0,85,0.00,,,0.25,WUHU216HW,2013-06-23 15:19:00,
2013-06-23 10:24:00,67.0,62.3,29.54,North,0,0.0,0.0,85,0.00,,,0.25,WUHU216HW,2013-06-23 15:24:00,
2013-06-23 10:29:00,67.0,62.3,29.54,North,0,0.0,0.0,85,0.00,,,0.25,WUHU216HW,2013-06-23 15:29:00,
2013-06-23 10:34:00,67.1,62.5,29.54,North,0,0.0,0.0,85,0.00,,,0.25,WUHU216HW,2013-06-23 15:34:00,
2013-06-23 10:39:00,67.3,62.6,29.54,North,0,0.0,0.0,85,0.00,,,0.25,WUHU216HW,2013-06-23 15:39:00,
2013-06-23 10:44:00,67.5,62.8,29.54,North,0,0.0,0.0,85,0.00,,,0.25,WUHU216HW,2013-06-23 15:44:00,
2013-06-23 10:49:00,67.7,63.0,29.54,North,0,0.0,0.0,85,0.00,,,0.25,WUHU216HW,2013-06-23 15:49:00,
2013-06-23 10:54:00,67.9,63.2,29.53,North,0,0.0,0.0,85,0.00,,,0.25,WUHU216HW,2013-06-23 15:54:00,
2013-06-23 10:59:00,68.0,63.4,29.53,North,0,0.0,0.0,85,0.00,,,0.25,WUHU216HW,2013-06-23 15:59:00,
2013-06-23 11:04:00,68.6,63.9,29.53,North,0,0.0,0.0,85,0.00,,,0.25,WUHU216HW,2013-06-23 16:04:00,
2013-06-23 11:09:00,68.8,64.1,29.54,North,0,0.0,0.0,85,0.00,,,0.25,WUHU216HW,2013-06-23 16:09:00,
2013-06-23 11:14:00,69.3,64.3,29.55,North,0,0.0,0.0,84,0.00,,,0.25,WUHU216HW,2013-06-23 16:14:00,
2013-06-23 11:19:00,69.8,64.7,29.55,North,0,0.0,0.0,84,0.00,,,0.25,WUHU216HW,2013-06-23 16:19:00,
2013-06-23 11:24:00,70.0,64.9,29.55,North,0,0.0,0.0,84,0.00,,,0.25,WUHU216HW,2013-06-23 16:24:00,
2013-06-23 11:29:00,70.4,64.9,29.55,North,0,0.0,0.0,83,0.00,,,0.25,WUHU216HW,2013-06-23 16:29:00,
2013-06-23 11:34:00,70.9,65.4,29.55,North,0,0.0,0.0,83,0.00,,,0.25,WUHU216HW,2013-06-23 16:34:00,
2013-06-23 11:39:00,71.5,65.7,29.55,North,0,0.0,0.0,82,0.00,,,0.25,WUHU216HW,2013-06-23 16:39:00,
2013-06-23 11:44:00,71.6,65.9,29.55,North,0,0.0,0.0,82,0.00,,,0.25,WUHU216HW,2013-06-23 16:44:00,
2013-06-23 11:49:00,72.0,66.3,29.56,North,0,0.0,0.0,82,0.00,,,0.25,WUHU216HW,2013-06-23 16:49:00,
2013-06-23 11:54:00,72.4,65.9,29.56,North,0,0.0,0.0,80,0.00,,,0.25,WUHU216HW,2013-06-23 16:54:00,
2013-06-23 11:59:00,72.4,65.9,29.56,North,0,0.0,0.0,80,0.00,,,0.25,WUHU216HW,2013-06-23 16:59:00,
2013-06-23 12:05:00,72.5,66.4,29.56,North,0,0.0,0.0,81,0.00,,,0.25,WUHU216HW,2013-06-23 17:05:00,
2013-06-23 12:10:00,72.9,66.8,29.57,North,0,0.0,0.0,81,0.00,,,0.25,WUHU216HW,2013-06-23 17:10:00,
2013-06-23 12:15:00,73.1,67.0,29.56,North,0,0.0,0.0,81,0.00,,,0.25,WUHU216HW,2013-06-23 17:15:00,
2013-06-23 12:20:00,74.0,68.2,29.56,North,0,0.0,0.0,82,0.00,,,0.25,WUHU216HW,2013-06-23 17:20:00,
2013-06-23 12:25:00,74.9,68.4,29.56,North,0,0.0,0.0,80,0.00,,,0.25,WUHU216HW,2013-06-23 17:25:00,
2013-06-23 12:30:00,75.4,68.5,29.57,North,0,0.0,0.0,79,0.00,,,0.25,WUHU216HW,2013-06-23 17:30:00,
2013-06-23 12:35:00,76.1,68.8,29.57,North,0,0.0,0.0,78,0.00,,,0.25,WUHU216HW,2013-06-23 17:35:00,
2013-06-23 12:40:00,76.3,68.6,29.56,North,0,0.0,0.0,77,0.00,,,0.25,WUHU216HW,2013-06-23 17:40:00,
2013-06-23 12:45:00,76.7,68.5,29.56,North,0,0.0,0.0,76,0.00,,,0.25,WUHU216HW,2013-06-23 17:45:00,
2013-06-23 12:50:00,76.7,68.1,29.56,North,0,0.0,0.0,75,0.00,,,0.25,WUHU216HW,2013-06-23 17:50:00,
2013-06-23 12:55:00,76.7,67.8,29.56,North,0,0.0,0.0,74,0.00,,,0.25,WUHU216HW,2013-06-23 17:55:00,
2013-06-23 13:00:00,76.3,67.4,29.56,North,0,0.0,0.0,74,0.00,,,0.25,WUHU216HW,2013-06-23 18:00:00,
2013-06-23 13:05:00,76.3,67.4,29.55,North,0,0.0,0.0,74,0.00,,,0.25,WUHU216HW,2013-06-23 18:05:00,
2013-06-23 13:10:00,76.3,67.8,29.55,North,0,0.0,0.0,75,0.00,,,0.25,WUHU216HW,2013-06-23 18:10:00,
2013-06-23 13:15:00,76.3,67.8,29.56,North,0,0.0,0.0,75,0.00,,,0.25,WUHU216HW,2013-06-23 18:15:00,
2013-06-23 13:20:00,76.1,67.7,29.55,North,0,0.0,0.0,75,0.00,,,0.25,WUHU216HW,2013-06-23 18:20:00,
2013-06-23 13:25:00,76.1,67.7,29.56,North,0,0.0,0.0,75,0.00,,,0.25,WUHU216HW,2013-06-23 18:25:00,
2013-06-23 13:30:00,76.0,67.5,29.56,North,0,0.0,0.0,75,0.00,,,0.25,WUHU216HW,2013-06-23 18:30:00,
2013-06-23 13:35:00,76.0,67.5,29.56,North,0,0.0,0.0,75,0.00,,,0.25,WUHU216HW,2013-06-23 18:35:00,
2013-06-23 13:40:00,76.0,67.5,29.56,North,0,0.0,0.0,75,0.00,,,0.25,WUHU216HW,2013-06-23 18:40:00,
2013-06-23 13:45:00,76.0,67.5,29.56,North,0,0.0,0.0,75,0.00,,,0.25,WUHU216HW,2013-06-23 18:45:00,
2013-06-23 13:50:00,76.0,67.5,29.56,North,0,0.0,0.0,75,0.00,,,0.25,WUHU216HW,2013-06-23 18:50:00,
2013-06-23 13:55:00,76.0,67.5,29.56,North,0,0.0,0.0,75,0.00,,,0.25,WUHU216HW,2013-06-23 18:55:00,
2013-06-23 14:00:00,76.1,67.7,29.56,North,0,0.0,0.0,75,0.00,,,0.25,WUHU216HW,2013-06-23 19:00:00,
2013-06-23 14:05:00,76.1,67.7,29.56,North,0,0.0,0.0,75,0.00,,,0.25,WUHU216HW,2013-06-23 19:05:00,
2013-06-23 14:10:00,76.3,67.8,29.56,North,0,0.0,0.0,75,0.00,,,0.25,WUHU216HW,2013-06-23 19:10:00,
2013-06-23 14:15:00,76.3,67.8,29.56,North,0,0.0,0.0,75,0.00,,,0.25,WUHU216HW,2013-06-23 19:15:00,
2013-06-23 14:20:00,76.1,67.7,29.56,North,0,0.0,0.0,75,0.00,,,0.25,WUHU216HW,2013-06-23 19:20:00,
2013-06-23 14:25:00,76.1,67.7,29.56,North,0,0.0,0.0,75,0.00,,,0.25,WUHU216HW,2013-06-23 19:25:00,
2013-06-23 14:30:00,76.0,67.5,29.56,North,0,0.0,0.0,75,0.00,,,0.25,WUHU216HW,2013-06-23 19:30:00,
2013-06-23 14:35:00,76.0,67.1,29.55,North,0,0.0,0.0,74,0.00,,,0.25,WUHU216HW,2013-06-23 19:35:00,
2013-06-23 14:40:00,75.8,67.3,29.56,North,0,0.0,0.0,75,0.00,,,0.25,WUHU216HW,2013-06-23 19:40:00,
2013-06-23 14:45:00,75.6,66.7,29.56,North,0,0.0,0.0,74,0.00,,,0.25,WUHU216HW,2013-06-23 19:45:00,
2013-06-23 14:50:00,75.6,66.7,29.55,North,0,0.0,0.0,74,0.00,,,0.25,WUHU216HW,2013-06-23 19:50:00,
2013-06-23 14:55:00,75.6,67.2,29.56,North,0,0.0,0.0,75,0.00,,,0.25,WUHU216HW,2013-06-23 19:55:00,
2013-06-23 15:00:00,75.8,67.3,29.55,North,0,0.0,0.0,75,0.00,,,0.25,WUHU216HW,2013-06-23 20:00:00,
2013-06-23 15:05:00,76.0,67.5,29.56,North,0,0.0,0.0,75,0.00,,,0.25,WUHU216HW,2013-06-23 20:05:00,
2013-06-23 15:10:00,76.3,67.8,29.56,North,0,0.0,0.0,75,0.00,,,0.25,WUHU216HW,2013-06-23 20:10:00,
2013-06-23 15:15:00,76.5,68.0,29.56,North,0,0.0,0.0,75,0.00,,,0.25,WUHU216HW,2013-06-23 20:15:00,
2013-06-23 15:20:00,76.7,67.8,29.55,North,0,0.0,0.0,74,0.00,,,0.25,WUHU216HW,2013-06-23 20:20:00,
2013-06-23 15:25:00,76.7,67.8,29.55,North,0,0.0,0.0,74,0.00,,,0.25,WUHU216HW,2013-06-23 20:25:00,
2013-06-23 15:30:00,77.0,68.1,29.55,North,0,0.0,0.0,74,0.00,,,0.25,WUHU216HW,2013-06-23 20:30:00,
2013-06-23 15:35:00,77.0,68.1,29.55,North,0,0.0,0.0,74,0.00,,,0.25,WUHU216HW,2013-06-23 20:35:00,
2013-06-23 15:40:00,77.0,67.8,29.55,North,0,0.0,0.0,73,0.00,,,0.25,WUHU216HW,2013-06-23 20:40:00,
2013-06-23 15:45:00,77.2,68.3,29.55,North,0,0.0,0.0,74,0.00,,,0.25,WUHU216HW,2013-06-23 20:45:00,
2013-06-23 15:50:00,77.4,68.5,29.55,North,0,0.0,0.0,74,0.00,,,0.25,WUHU216HW,2013-06-23 20:50:00,
2013-06-23 15:55:00,77.6,68.6,29.55,North,0,0.0,0.0,74,0.00,,,0.25,WUHU216HW,2013-06-23 20:55:00,
2013-06-23 16:00:00,77.6,68.2,29.55,North,0,0.0,0.0,73,0.00,,,0.25,WUHU216HW,2013-06-23 21:00:00,
2013-06-23 16:05:00,77.6,68.2,29.55,North,0,0.0,0.0,73,0.00,,,0.25,WUHU216HW,2013-06-23 21:05:00,
2013-06-23 16:10:00,77.6,68.2,29.55,North,0,0.0,0.0,73,0.00,,,0.25,WUHU216HW,2013-06-23 21:10:00,
2013-06-23 16:15:00,77.6,68.2,29.54,North,0,0.0,0.0,73,0.00,,,0.25,WUHU216HW,2013-06-23 21:15:00,
2013-06-23 16:20:00,77.8,68.8,29.54,North,0,0.0,0.0,74,0.00,,,0.25,WUHU216HW,2013-06-23 21:20:00,
2013-06-23 16:25:00,78.1,69.1,29.54,North,0,0.0,0.0,74,0.00,,,0.25,WUHU216HW,2013-06-23 21:25:00,
2013-06-23 16:30:00,78.1,68.8,29.54,North,0,0.0,0.0,73,0.00,,,0.25,WUHU216HW,2013-06-23 21:30:00,
2013-06-23 16:35:00,78.1,68.8,29.53,North,0,0.0,0.0,73,0.00,,,0.25,WUHU216HW,2013-06-23 21:35:00,
2013-06-23 16:40:00,78.3,68.5,29.53,North,0,0.0,0.0,72,0.00,,,0.25,WUHU216HW,2013-06-23 21:40:00,
2013-06-23 16:45:00,78.3,69.0,29.53,North,0,0.0,0.0,73,0.00,,,0.25,WUHU216HW,2013-06-23 21:45:00,
2013-06-23 16:50:00,78.5,68.7,29.53,North,0,0.0,0.0,72,0.00,,,0.25,WUHU216HW,2013-06-23 21:50:00,
2013-06-23 16:55:00,78.7,68.9,29.52,North,0,0.0,0.0,72,0.00,,,0.25,WUHU216HW,2013-06-23 21:55:00,
2013-06-23 17:00:00,78.7,68.9,29.52,North,0,0.0,0.0,72,0.00,,,0.25,WUHU216HW,2013-06-23 22:00:00,
2013-06-23 17:05:00,78.8,69.4,29.52,North,0,0.0,0.0,73,0.00,,,0.25,WUHU216HW,2013-06-23 22:05:00,
2013-06-23 17:10:00,78.8,69.0,29.53,North,0,0.0,0.0,72,0.00,,,0.25,WUHU216HW,2013-06-23 22:10:00,
2013-06-23 17:15:00,78.8,69.0,29.53,North,0,0.0,0.0,72,0.00,,,0.25,WUHU216HW,2013-06-23 22:15:00,
2013-06-23 17:20:00,78.8,68.6,29.53,North,0,0.0,0.0,71,0.00,,,0.25,WUHU216HW,2013-06-23 22:20:00,
2013-06-23 17:25:00,78.8,68.6,29.53,North,0,0.0,0.0,71,0.00,,,0.25,WUHU216HW,2013-06-23 22:25:00,
2013-06-23 17:30:00,78.8,68.6,29.53,North,0,0.0,0.0,71,0.00,,,0.25,WUHU216HW,2013-06-23 22:30:00,
2013-06-23 17:35:00,79.2,68.9,29.53,North,0,0.0,0.0,71,0.00,,,0.25,WUHU216HW,2013-06-23 22:35:00,
2013-06-23 17:40:00,79.2,68.9,29.54,North,0,0.0,0.0,71,0.00,,,0.25,WUHU216HW,2013-06-23 22:40:00,
2013-06-23 17:45:00,79.6,69.3,29.53,North,0,0.0,0.0,71,0.00,,,0.25,WUHU216HW,2013-06-23 22:45:00,
2013-06-23 17:50:00,79.7,69.5,29.53,North,0,0.0,0.0,71,0.00,,,0.25,WUHU216HW,2013-06-23 22:50:00,
2013-06-23 17:55:00,79.7,69.5,29.53,North,0,0.0,0.0,71,0.00,,,0.25,WUHU216HW,2013-06-23 22:55:00,
2013-06-23 18:00:00,79.6,69.3,29.53,North,0,0.0,0.0,71,0.00,,,0.25,WUHU216HW,2013-06-23 23:00:00,
2013-06-23 18:05:00,79.6,69.3,29.53,North,0,0.0,0.0,71,0.00,,,0.25,WUHU216HW,2013-06-23 23:05:00,
2013-06-23 18:10:00,79.6,69.3,29.53,North,0,0.0,0.0,71,0.00,,,0.25,WUHU216HW,2013-06-23 23:10:00,
2013-06-23 18:15:00,79.4,69.1,29.53,North,0,0.0,0.0,71,0.00,,,0.25,WUHU216HW,2013-06-23 23:15:00,
2013-06-23 18:20:00,79.2,68.9,29.53,North,0,0.0,0.0,71,0.00,,,0.25,WUHU216HW,2013-06-23 23:20:00,
2013-06-23 18:25:00,79.2,68.6,29.53,North,0,0.0,0.0,70,0.00,,,0.25,WUHU216HW,2013-06-23 23:25:00,
2013-06-23 18:30:00,79.2,68.9,29.53,North,0,0.0,0.0,71,0.00,,,0.25,WUHU216HW,2013-06-23 23:30:00,
2013-06-23 18:35:00,79.4,69.1,29.52,North,0,0.0,0.0,71,0.00,,,0.25,WUHU216HW,2013-06-23 23:35:00,
2013-06-23 18:40:00,79.6,69.3,29.52,North,0,0.0,0.0,71,0.00,,,0.25,WUHU216HW,2013-06-23 23:40:00,
2013-06-23 18:45:00,79.6,69.3,29.52,North,0,0.0,0.0,71,0.00,,,0.25,WUHU216HW,2013-06-23 23:45:00,
2013-06-23 18:50:00,79.6,69.3,29.52,North,0,0.0,0.0,71,0.00,,,0.25,WUHU216HW,2013-06-23 23:50:00,
2013-06-23 18:55:00,79.7,69.5,29.52,North,0,0.0,0.0,71,0.00,,,0.25,WUHU216HW,2013-06-23 23:55:00,
2013-06-23 19:00:00,79.6,69.3,29.52,North,0,0.0,0.0,71,0.00,,,0.25,WUHU216HW,2013-06-24 00:00:00,
2013-06-23 19:05:00,79.6,69.3,29.52,North,0,0.0,0.0,71,0.00,,,0.25,WUHU216HW,2013-06-24 00:05:00,
2013-06-23 19:10:00,79.6,69.3,29.52,North,0,0.0,0.0,71,0.00,,,0.25,WUHU216HW,2013-06-24 00:10:00,
2013-06-23 19:15:00,79.4,69.1,29.52,North,0,0.0,0.0,71,0.00,,,0.25,WUHU216HW,2013-06-24 00:15:00,
2013-06-23 19:20:00,79.0,69.2,29.52,North,0,0.0,0.0,72,0.00,,,0.25,WUHU216HW,2013-06-24 00:20:00,
2013-06-23 19:25:00,78.8,69.0,29.52,North,0,0.0,0.0,72,0.00,,,0.25,WUHU216HW,2013-06-24 00:25:00,
2013-06-23 19:30:00,78.7,69.2,29.52,North,0,0.0,0.0,73,0.00,,,0.25,WUHU216HW,2013-06-24 00:30:00,
2013-06-23 19:35:00,78.7,69.2,29.52,North,0,0.0,0.0,73,0.00,,,0.25,WUHU216HW,2013-06-24 00:35:00,
2013-06-23 19:40:00,78.5,69.0,29.52,North,0,0.0,0.0,73,0.00,,,0.25,WUHU216HW,2013-06-24 00:40:00,
2013-06-23 19:45:00,78.5,69.0,29.52,North,0,0.0,0.0,73,0.00,,,0.25,WUHU216HW,2013-06-24 00:45:00,
2013-06-23 19:50:00,78.5,69.0,29.52,North,0,0.0,0.0,73,0.00,,,0.25,WUHU216HW,2013-06-24 00:50:00,
2013-06-23 19:55:00,78.5,69.5,29.52,North,0,0.0,0.0,74,0.00,,,0.25,WUHU216HW,2013-06-24 00:55:00,
2013-06-23 20:00:00,78.7,69.2,29.52,North,0,0.0,0.0,73,0.00,,,0.25,WUHU216HW,2013-06-24 01:00:00,
2013-06-23 20:05:00,78.8,69.4,29.52,North,0,0.0,0.0,73,0.00,,,0.25,WUHU216HW,2013-06-24 01:05:00,
2013-06-23 20:10:00,78.7,69.2,29.52,North,0,0.0,0.0,73,0.00,,,0.25,WUHU216HW,2013-06-24 01:10:00,
2013-06-23 20:15:00,78.7,69.2,29.52,North,0,0.0,0.0,73,0.00,,,0.25,WUHU216HW,2013-06-24 01:15:00,
2013-06-23 20:20:00,78.5,69.0,29.52,North,0,0.0,0.0,73,0.00,,,0.25,WUHU216HW,2013-06-24 01:20:00,
2013-06-23 20:25:00,78.5,69.0,29.52,North,0,0.0,0.0,73,0.00,,,0.25,WUHU216HW,2013-06-24 01:25:00,
2013-06-23 20:30:00,78.3,69.0,29.52,North,0,0.0,0.0,73,0.00,,,0.25,WUHU216HW,2013-06-24 01:30:00,
2013-06-23 20:35:00,78.1,69.1,29.52,North,0,0.0,0.0,74,0.00,,,0.25,WUHU216HW,2013-06-24 01:35:00,
2013-06-23 20:40:00,78.1,69.1,29.53,North,0,0.0,0.0,74,0.00,,,0.25,WUHU216HW,2013-06-24 01:40:00,
2013-06-23 20:45:00,77.9,68.9,29.53,North,0,0.0,0.0,74,0.00,,,0.25,WUHU216HW,2013-06-24 01:45:00,
2013-06-23 20:50:00,77.9,69.3,29.53,North,0,0.0,0.0,75,0.00,,,0.25,WUHU216HW,2013-06-24 01:50:00,
2013-06-23 20:55:00,77.8,69.2,29.53,North,0,0.0,0.0,75,0.00,,,0.25,WUHU216HW,2013-06-24 01:55:00,
2013-06-23 21:00:00,77.8,69.2,29.53,North,0,0.0,0.0,75,0.00,,,0.25,WUHU216HW,2013-06-24 02:00:00,
2013-06-23 21:05:00,77.6,69.0,29.53,North,0,0.0,0.0,75,0.00,,,0.25,WUHU216HW,2013-06-24 02:05:00,
2013-06-23 21:10:00,77.6,69.0,29.53,North,0,0.0,0.0,75,0.00,,,0.25,WUHU216HW,2013-06-24 02:10:00,
2013-06-23 21:15:00,77.6,69.4,29.53,North,0,0.0,0.0,76,0.00,,,0.25,WUHU216HW,2013-06-24 02:15:00,
2013-06-23 21:20:00,77.6,69.4,29.54,North,0,0.0,0.0,76,0.00,,,0.25,WUHU216HW,2013-06-24 02:20:00,
2013-06-23 21:25:00,77.4,69.2,29.54,North,0,0.0,0.0,76,0.00,,,0.25,WUHU216HW,2013-06-24 02:25:00,
2013-06-23 21:30:00,77.4,69.2,29.55,North,0,0.0,0.0,76,0.00,,,0.25,WUHU216HW,2013-06-24 02:30:00,
2013-06-23 21:35:00,77.4,69.2,29.54,North,0,0.0,0.0,76,0.00,,,0.25,WUHU216HW,2013-06-24 02:35:00,
2013-06-23 21:40:00,77.2,69.0,29.55,North,0,0.0,0.0,76,0.00,,,0.25,WUHU216HW,2013-06-24 02:40:00,
2013-06-23 21:45:00,77.2,69.4,29.55,North,0,0.0,0.0,77,0.00,,,0.25,WUHU216HW,2013-06-24 02:45:00,
2013-06-23 21:50:00,77.0,69.2,29.55,North,0,0.0,0.0,77,0.00,,,0.25,WUHU216HW,2013-06-24 02:50:00,
2013-06-23 21:55:00,77.0,69.2,29.55,North,0,0.0,0.0,77,0.00,,,0.25,WUHU216HW,2013-06-24 02:55:00,
2013-06-23 22:00:00,76.9,69.1,29.55,North,0,0.0,0.0,77,0.00,,,0.25,WUHU216HW,2013-06-24 03:00:00,
2013-06-23 22:05:00,76.9,69.5,29.55,North,0,0.0,0.0,78,0.00,,,0.25,WUHU216HW,2013-06-24 03:05:00,
2013-06-23 22:10:00,76.7,69.3,29.55,North,0,0.0,0.0,78,0.00,,,0.25,WUHU216HW,2013-06-24 03:10:00,
2013-06-23 22:15:00,76.7,69.3,29.55,North,0,0.0,0.0,78,0.00,,,0.25,WUHU216HW,2013-06-24 03:15:00,
2013-06-23 22:20:00,76.7,69.3,29.56,North,0,0.0,0.0,78,0.00,,,0.25,WUHU216HW,2013-06-24 03:20:00,
2013-06-23 22:25:00,76.9,69.5,29.56,North,0,0.0,0.0,78,0.00,,,0.25,WUHU216HW,2013-06-24 03:25:00,
2013-06-23 22:30:00,76.9,69.5,29.56,North,0,0.0,0.0,78,0.00,,,0.25,WUHU216HW,2013-06-24 03:30:00,
2013-06-23 22:36:00,76.7,69.3,29.56,North,0,0.0,0.0,78,0.00,,,0.25,WUHU216HW,2013-06-24 03:36:00,
2013-06-23 22:41:00,76.7,69.3,29.56,North,0,0.0,0.0,78,0.00,,,0.25,WUHU216HW,2013-06-24 03:41:00,
2013-06-23 22:46:00,76.7,69.3,29.56,North,0,0.0,0.0,78,0.00,,,0.25,WUHU216HW,2013-06-24 03:46:00,
2013-06-23 22:51:00,76.7,69.3,29.56,North,0,0.0,0.0,78,0.00,,,0.25,WUHU216HW,2013-06-24 03:51:00,
2013-06-23 22:56:00,76.7,69.3,29.57,North,0,0.0,0.0,78,0.00,,,0.25,WUHU216HW,2013-06-24 03:56:00,
2013-06-23 23:01:00,76.5,69.1,29.57,North,0,0.0,0.0,78,0.00,,,0.25,WUHU216HW,2013-06-24 04:01:00,
2013-06-23 23:06:00,76.7,69.3,29.56,North,0,0.0,0.0,78,0.00,,,0.25,WUHU216HW,2013-06-24 04:06:00,
2013-06-23 23:11:00,76.7,69.3,29.57,North,0,0.0,0.0,78,0.00,,,0.25,WUHU216HW,2013-06-24 04:11:00,
2013-06-23 23:16:00,76.5,69.5,29.56,North,0,0.0,0.0,79,0.00,,,0.25,WUHU216HW,2013-06-24 04:16:00,
2013-06-23 23:21:00,76.5,69.5,29.56,North,0,0.0,0.0,79,0.00,,,0.25,WUHU216HW,2013-06-24 04:21:00,
2013-06-23 23:26:00,76.5,69.5,29.56,North,0,0.0,0.0,79,0.00,,,0.25,WUHU216HW,2013-06-24 04:26:00,
2013-06-23 23:31:00,76.5,69.5,29.56,North,0,0.0,0.0,79,0.00,,,0.25,WUHU216HW,2013-06-24 04:31:00,
2013-06-23 23:36:00,76.3,69.8,29.56,North,0,0.0,0.0,80,0.00,,,0.25,WUHU216HW,2013-06-24 04:36:00,
2013-06-23 23:41:00,76.3,69.8,29.56,North,0,0.0,0.0,80,0.00,,,0.25,WUHU216HW,2013-06-24 04:41:00,
2013-06-23 23:46:00,76.3,69.8,29.55,North,0,0.0,0.0,80,0.00,,,0.25,WUHU216HW,2013-06-24 04:46:00,
2013-06-23 23:51:00,76.1,69.6,29.55,North,0,0.0,0.0,80,0.00,,,0.25,WUHU216HW,2013-06-24 04:51:00,
2013-06-23 23:56:00,76.1,69.9,29.55,North,0,0.0,0.0,81,0.00,,,0.25,WUHU216HW,2013-06-24 04:56:00,